Regional Weather Roundup
Issued by NWS Cleveland, OH

Home | Current Version | Previous Version | Graphics & Text | Print | Product List | Glossary On
Versions: 1 2 3 4 5 6 7 8 9 10 11 12 13 14 15 16 17 18 19 20 21 22 23 24 25 26 27 28 29 30 31 32 33 34 35 36 37 38 39 40 41 42 43 44 45 46 47 48 49 50
000
ASUS41 KCLE 020800
RWRCLE
OHIO REGIONAL WEATHER ROUNDUP
NATIONAL WEATHER SERVICE WILMINGTON, OH
400 AM EDT TUE JUN 02 2015

NOTE: "FAIR" INDICATES FEW OR NO CLOUDS BELOW 12,000 FEET WITH NO
SIGNIFICANT WEATHER AND/OR OBSTRUCTIONS TO VISIBILITY.

OHZ001>008-015>018-024>027-034-035-043-044-020900-
   NORTHWEST OHIO

CITY           SKY/WX    TMP DP  RH WIND       PRES   REMARKS
DEFIANCE       CLEAR     47  44  90 CALM      30.17F
FINDLAY        PTCLDY    50  47  89 N5        30.14F
TOLEDO EXPRESS CLEAR     46  41  82 NE5       30.16F
TOLEDO EXEC    CLEAR     53  44  71 NE5       30.17F
LIMA           PTCLDY    47  45  93 CALM      30.15S FOG
$$

OHZ009>014-019>023-028>033-038-089-020900-
   NORTHEAST OHIO

CITY           SKY/WX    TMP DP  RH WIND       PRES   REMARKS
CLE-HOPKINS    CLOUDY    53  49  86 NE7       30.17S
CLE-LAKEFRONT  CLOUDY    54  49  83 E7        30.15S
CUY CO. ARPT   NOT AVBL
LORAIN-ELYRIA  CLOUDY    50  47  89 NE6       30.16F
ASHTABULA      CLOUDY    51  49  92 VRB3      30.16F
AKRON-CANTON   CLOUDY    52  47  83 NE6       30.13S
WOOSTER        NOT AVBL
MANSFIELD      CLOUDY    50  49  96 NE8       30.13F
YOUNGSTOWN     CLOUDY    50  48  93 N6        30.13F
$$

OHZ042-051>053-060>062-070>072-077>081-020900-
  SOUTHWEST OHIO

CITY           SKY/WX    TMP DP  RH WIND       PRES   REMARKS
CINC-COVINGTON CLOUDY    54  49  83 NE8       30.11F
CINC-LUNKEN    CLOUDY    54  49  83 N8        30.13S
HAMILTON       CLOUDY    54  48  80 E6        30.14S
DAYTON         NOT AVBL
WRIGHT-PAT AFB PTCLDY    49  47  94 CALM      30.13S
DAYTON GENERAL MOCLDY    48  47  96 NE5       30.12S
WILMINGTON     CLOUDY    51  47  86 NE8       30.12S
$$

OHZ036-037-039>041-045>050-054>059-063>069-073>076-082>088-020900-
  CENTRAL AND SOUTHEAST OHIO

CITY           SKY/WX    TMP DP  RH WIND       PRES   REMARKS
COLUMBUS       CLOUDY    52  47  83 NE6       30.12S
OSU AIRPORT    CLOUDY    52  48  86 N5        30.12F
BOLTON FIELD   NOT AVBL
RICKENBACK AFB NOT AVBL
NEWARK         CLOUDY    53  47  79 VRB5      30.12R
MARION         CLOUDY    50  47  89 NE8       30.13F FOG
LANCASTER      CLOUDY    53  48  83 NE6       30.12S
ZANESVILLE     CLOUDY    52  47  83 NE5       30.11F
NEW PHILLY     CLOUDY    54  49  83 N3        30.12F
$$



USA.gov is the U.S. government's official web portal to all federal, state and local government web resources and services.